When you browse on this site, cookies collect data to enhance your experience and personalize the content and advertising you see.
Visit our Privacy Policy to learn more. By continuing to use the site, you agree to this use of cookies and data.

Hourly Weather Gribovka

Today, 9 July, Thursday

Time Temperature Precipitation Wind Pressure Humidity
00:00 +19°C° 0.9 mm 4 mps 738 mmHg 97%
01:00 +18°C° 1.6 mm 4 mps 738 mmHg 97%
02:00 +17°C° 1.6 mm 4 mps 738 mmHg 97%
03:00 +14°C° 0 mm 3 mps 738 mmHg 91%
04:00 +14°C° 1.1 mm 3 mps 738 mmHg 92%
05:00 +13°C° 1.1 mm 4 mps 739 mmHg 93%
06:00 +13°C° 1.1 mm 4 mps 739 mmHg 94%
07:00 +13°C° 0 mm 5 mps 739 mmHg 93%
08:00 +14°C° 0 mm 5 mps 740 mmHg 91%
09:00 +14°C° 0 mm 6 mps 741 mmHg 90%
10:00 +16°C° 0 mm 5 mps 741 mmHg 85%
11:00 +17°C° 0 mm 5 mps 742 mmHg 79%
12:00 +19°C° 0 mm 4 mps 742 mmHg 73%
13:00 +20°C° 0 mm 4 mps 742 mmHg 72%
14:00 +20°C° 0 mm 4 mps 742 mmHg 71%
15:00 +21°C° 0 mm 4 mps 742 mmHg 69%
16:00 +20°C° 0 mm 4 mps 743 mmHg 71%
17:00 +20°C° 0 mm 4 mps 743 mmHg 73%
18:00 +20°C° 0 mm 3 mps 743 mmHg 75%
19:00 +19°C° 0.1 mm 3 mps 743 mmHg 79%
20:00 +17°C° 0.1 mm 2 mps 743 mmHg 83%
21:00 +15°C° 0.1 mm 2 mps 743 mmHg 87%
22:00 +15°C° 0 mm 2 mps 744 mmHg 89%
23:00 +13°C° 0 mm 3 mps 744 mmHg 91%

Tomorrow, 10 July, Friday

Time Temperature Precipitation Wind Pressure Humidity
00:00 +13°C° 0 mm 3 mps 744 mmHg 92%
01:00 +12°C° 0 mm 3 mps 745 mmHg 93%
02:00 +12°C° 0 mm 3 mps 745 mmHg 93%
03:00 +11°C° 0 mm 3 mps 745 mmHg 94%
04:00 +12°C° 0 mm 3 mps 746 mmHg 93%
05:00 +13°C° 0 mm 2 mps 746 mmHg 92%
06:00 +13°C° 0 mm 2 mps 746 mmHg 90%
07:00 +15°C° 0 mm 2 mps 747 mmHg 85%
08:00 +16°C° 0 mm 2 mps 747 mmHg 79%
09:00 +18°C° 0 mm 2 mps 747 mmHg 73%
10:00 +19°C° 0 mm 2 mps 747 mmHg 69%
11:00 +20°C° 0 mm 3 mps 747 mmHg 65%
12:00 +20°C° 0 mm 3 mps 748 mmHg 61%
13:00 +21°C° 0 mm 3 mps 748 mmHg 61%
14:00 +21°C° 0 mm 3 mps 747 mmHg 61%
15:00 +21°C° 0 mm 3 mps 747 mmHg 61%
16:00 +21°C° 0 mm 3 mps 747 mmHg 64%
17:00 +21°C° 0 mm 3 mps 748 mmHg 67%
18:00 +21°C° 0 mm 2 mps 748 mmHg 70%
19:00 +19°C° 0 mm 2 mps 748 mmHg 74%
20:00 +18°C° 0 mm 2 mps 748 mmHg 78%
21:00 +16°C° 0 mm 2 mps 748 mmHg 82%
22:00 +16°C° 0 mm 2 mps 748 mmHg 83%
23:00 +15°C° 0 mm 2 mps 748 mmHg 83%

Day after tomorrow, 11 July, Saturday

Time Temperature Precipitation Wind Pressure Humidity
00:00 +14°C° 0 mm 3 mps 748 mmHg 84%
01:00 +14°C° 0 mm 3 mps 748 mmHg 85%
02:00 +13°C° 0 mm 3 mps 748 mmHg 85%
03:00 +13°C° 0 mm 3 mps 748 mmHg 86%
04:00 +13°C° 0 mm 3 mps 748 mmHg 86%
05:00 +14°C° 0 mm 3 mps 748 mmHg 86%
06:00 +14°C° 0 mm 3 mps 748 mmHg 86%
07:00 +17°C° 0 mm 4 mps 749 mmHg 82%
08:00 +19°C° 0 mm 4 mps 749 mmHg 79%
09:00 +20°C° 0 mm 4 mps 749 mmHg 76%
10:00 +21°C° 0 mm 5 mps 749 mmHg 74%
11:00 +22°C° 0 mm 5 mps 749 mmHg 73%
12:00 +23°C° 0 mm 5 mps 748 mmHg 71%
13:00 +25°C° 0 mm 5 mps 748 mmHg 71%
14:00 +25°C° 0 mm 5 mps 748 mmHg 71%
15:00 +26°C° 0 mm 5 mps 748 mmHg 71%
16:00 +26°C° 0 mm 5 mps 748 mmHg 73%
17:00 +25°C° 0 mm 4 mps 747 mmHg 75%
18:00 +25°C° 0 mm 4 mps 747 mmHg 78%
19:00 +24°C° 0 mm 3 mps 747 mmHg 82%
20:00 +21°C° 0 mm 3 mps 747 mmHg 86%
21:00 +20°C° 0 mm 3 mps 747 mmHg 91%
22:00 +20°C° 0 mm 3 mps 747 mmHg 91%
23:00 +19°C° 0 mm 3 mps 747 mmHg 92%

12 July, Sunday

Time Temperature Precipitation Wind Pressure Humidity
00:00 +18°C° 0 mm 3 mps 747 mmHg 92%
01:00 +18°C° 0 mm 3 mps 747 mmHg 92%
02:00 +18°C° 0 mm 3 mps 747 mmHg 92%
03:00 +17°C° 0 mm 3 mps 747 mmHg 93%
04:00 +18°C° 0 mm 2 mps 747 mmHg 92%
05:00 +18°C° 0 mm 2 mps 747 mmHg 91%
06:00 +18°C° 0 mm 2 mps 747 mmHg 90%
07:00 +20°C° 0 mm 2 mps 747 mmHg 85%
08:00 +21°C° 0 mm 2 mps 747 mmHg 81%
09:00 +24°C° 0 mm 2 mps 747 mmHg 77%
10:00 +25°C° 0 mm 2 mps 747 mmHg 73%
11:00 +26°C° 0 mm 2 mps 747 mmHg 69%
12:00 +27°C° 0 mm 2 mps 746 mmHg 66%
13:00 +27°C° 0 mm 2 mps 746 mmHg 64%
14:00 +27°C° 0 mm 2 mps 746 mmHg 63%
15:00 +28°C° 0 mm 2 mps 746 mmHg 61%
16:00 +28°C° 0 mm 2 mps 745 mmHg 63%
17:00 +27°C° 0 mm 2 mps 745 mmHg 66%
18:00 +27°C° 0 mm 1 mps 745 mmHg 68%
19:00 +25°C° 0 mm 1 mps 745 mmHg 72%
20:00 +24°C° 0 mm 1 mps 744 mmHg 75%
21:00 +21°C° 0 mm 2 mps 744 mmHg 79%
22:00 +21°C° 0 mm 1 mps 744 mmHg 80%
23:00 +20°C° 0 mm 1 mps 744 mmHg 82%

13 July, Monday

Time Temperature Precipitation Wind Pressure Humidity
00:00 +20°C° 0 mm 1 mps 744 mmHg 83%
01:00 +19°C° 0 mm 1 mps 744 mmHg 84%
02:00 +19°C° 0 mm 1 mps 743 mmHg 85%
03:00 +18°C° 0 mm 1 mps 743 mmHg 86%
04:00 +19°C° 0 mm 1 mps 743 mmHg 87%
05:00 +18°C° 0 mm 2 mps 743 mmHg 87%
06:00 +18°C° 0 mm 2 mps 743 mmHg 88%
07:00 +20°C° 0 mm 2 mps 742 mmHg 85%
08:00 +21°C° 0 mm 3 mps 742 mmHg 81%
09:00 +24°C° 0 mm 3 mps 742 mmHg 78%
10:00 +25°C° 0 mm 3 mps 742 mmHg 75%
11:00 +26°C° 0 mm 3 mps 742 mmHg 72%
12:00 +27°C° 0 mm 3 mps 741 mmHg 68%
13:00 +28°C° 0.5 mm 3 mps 741 mmHg 69%
14:00 +28°C° 0.5 mm 3 mps 741 mmHg 70%
15:00 +28°C° 0.5 mm 3 mps 740 mmHg 71%
16:00 +28°C° 1 mm 2 mps 740 mmHg 74%
17:00 +28°C° 1 mm 2 mps 740 mmHg 77%
18:00 +27°C° 1 mm 2 mps 739 mmHg 80%
19:00 +26°C° 0.4 mm 2 mps 739 mmHg 82%
20:00 +25°C° 0.4 mm 2 mps 739 mmHg 84%
21:00 +24°C° 0.4 mm 3 mps 739 mmHg 86%
22:00 +22°C° 0.6 mm 3 mps 739 mmHg 87%
23:00 +21°C° 0.6 mm 2 mps 739 mmHg 89%

14 July, Tuesday

Time Temperature Precipitation Wind Pressure Humidity
00:00 +20°C° 0.6 mm 2 mps 738 mmHg 90%
01:00 +20°C° 0 mm 3 mps 738 mmHg 92%
02:00 +20°C° 0 mm 3 mps 738 mmHg 94%
03:00 +19°C° 0 mm 3 mps 738 mmHg 97%
04:00 +19°C° 0 mm 3 mps 737 mmHg 96%
05:00 +19°C° 0 mm 3 mps 737 mmHg 96%
06:00 +19°C° 0 mm 4 mps 737 mmHg 96%
07:00 +20°C° 0 mm 3 mps 737 mmHg 92%
08:00 +21°C° 0 mm 3 mps 737 mmHg 89%
09:00 +24°C° 0 mm 3 mps 737 mmHg 86%
10:00 +24°C° 0.4 mm 3 mps 737 mmHg 83%
11:00 +25°C° 0.4 mm 3 mps 736 mmHg 80%
12:00 +26°C° 0.4 mm 3 mps 736 mmHg 77%
13:00 +26°C° 1.1 mm 3 mps 736 mmHg 77%
14:00 +26°C° 1.1 mm 3 mps 735 mmHg 78%
15:00 +26°C° 1.1 mm 3 mps 735 mmHg 78%
16:00 +25°C° 2.3 mm 3 mps 735 mmHg 82%
17:00 +24°C° 2.3 mm 3 mps 734 mmHg 86%
18:00 +22°C° 2.3 mm 3 mps 734 mmHg 90%
19:00 +21°C° 0.8 mm 3 mps 734 mmHg 91%
20:00 +21°C° 0.8 mm 3 mps 734 mmHg 92%
21:00 +20°C° 0.8 mm 4 mps 734 mmHg 92%
22:00 +19°C° 0 mm 4 mps 734 mmHg 93%
23:00 +19°C° 0 mm 4 mps 735 mmHg 95%
Show more